contact:dominique.lefevre@mio.osupytheas.fr, maurice.libes@osupytheas.fr, didier.mallarino@osupytheas.fr
Project:EMSO http://www.emso-fr.org/EMSO-France
Depth: 2436.0 m
Title:EMSO Ligure Ouest : Data MII capteur MICROCAT
DateTime_Computer,Latitude,Longitude,Temperature,Conductivity,Pressure,DateTime_Instrument
DateTime_Computer,Latitude,Longitude,degC,S m-1,dbar,DateTime_Instrument
2022-07-21T00:01:24Z,42.805,6.029,13.3004,4.60037,2470.707,2022-7-21T02:03:11Z
2022-07-21T00:04:28Z,42.805,6.029,13.3003,4.60037,2470.693,2022-7-21T02:06:14Z
2022-07-21T00:07:31Z,42.805,6.029,13.3006,4.60039,2470.693,2022-7-21T02:09:18Z
2022-07-21T00:10:34Z,42.805,6.029,13.3006,4.60036,2470.717,2022-7-21T02:12:21Z
2022-07-21T00:13:37Z,42.805,6.029,13.3004,4.60036,2470.717,2022-7-21T02:15:24Z
2022-07-21T00:16:40Z,42.805,6.029,13.3006,4.60037,2470.717,2022-7-21T02:18:27Z
2022-07-21T00:19:43Z,42.805,6.029,13.3004,4.60037,2470.693,2022-7-21T02:21:30Z
2022-07-21T00:22:46Z,42.805,6.029,13.3006,4.60037,2470.693,2022-7-21T02:24:33Z
2022-07-21T00:25:49Z,42.805,6.029,13.3000,4.60037,2470.679,2022-7-21T02:27:36Z
2022-07-21T00:28:53Z,42.805,6.029,13.3007,4.60038,2470.693,2022-7-21T02:30:39Z
2022-07-21T00:31:56Z,42.805,6.029,13.3005,4.60037,2470.693,2022-7-21T02:33:42Z
2022-07-21T00:34:59Z,42.805,6.029,13.3004,4.60037,2470.717,2022-7-21T02:36:46Z
2022-07-21T00:38:02Z,42.805,6.029,13.3007,4.60038,2470.707,2022-7-21T02:39:49Z
2022-07-21T00:41:05Z,42.805,6.029,13.3005,4.60039,2470.73,2022-7-21T02:42:52Z
2022-07-21T00:44:08Z,42.805,6.029,13.3006,4.60039,2470.693,2022-7-21T02:45:55Z
2022-07-21T00:47:11Z,42.805,6.029,13.3003,4.60038,2470.717,2022-7-21T02:48:58Z
2022-07-21T00:50:14Z,42.805,6.029,13.3002,4.60037,2470.693,2022-7-21T02:52:01Z
2022-07-21T00:53:17Z,42.805,6.029,13.3011,4.60038,2470.707,2022-7-21T02:55:04Z
2022-07-21T00:56:21Z,42.805,6.029,13.3005,4.60039,2470.717,2022-7-21T02:58:07Z
2022-07-21T00:59:24Z,42.805,6.029,13.3005,4.60038,2470.684,2022-7-21T03:01:11Z
2022-07-21T01:02:27Z,42.805,6.029,13.3006,4.60037,2470.707,2022-7-21T03:04:14Z
2022-07-21T01:05:30Z,42.805,6.029,13.3004,4.60038,2470.693,2022-7-21T03:07:17Z
2022-07-21T01:08:33Z,42.805,6.029,13.3003,4.60038,2470.693,2022-7-21T03:10:20Z
2022-07-21T01:11:36Z,42.805,6.029,13.3005,4.60038,2470.73,2022-7-21T03:13:23Z
2022-07-21T01:14:39Z,42.805,6.029,13.3007,4.60037,2470.693,2022-7-21T03:16:26Z
2022-07-21T01:17:42Z,42.805,6.029,13.3002,4.60038,2470.67,2022-7-21T03:19:29Z
2022-07-21T01:20:46Z,42.805,6.029,13.3004,4.60038,2470.707,2022-7-21T03:22:32Z
2022-07-21T01:23:49Z,42.805,6.029,13.3005,4.60037,2470.707,2022-7-21T03:25:36Z
2022-07-21T01:26:52Z,42.805,6.029,13.3003,4.60036,2470.67,2022-7-21T03:28:39Z
2022-07-21T01:29:55Z,42.805,6.029,13.3006,4.60038,2470.684,2022-7-21T03:31:42Z
2022-07-21T01:32:58Z,42.805,6.029,13.3004,4.60038,2470.67,2022-7-21T03:34:45Z
2022-07-21T01:36:01Z,42.805,6.029,13.3004,4.60038,2470.707,2022-7-21T03:37:48Z
2022-07-21T01:39:04Z,42.805,6.029,13.3003,4.60039,2470.67,2022-7-21T03:40:51Z
2022-07-21T01:42:07Z,42.805,6.029,13.3005,4.60040,2470.684,2022-7-21T03:43:54Z
2022-07-21T01:45:11Z,42.805,6.029,13.3005,4.60038,2470.67,2022-7-21T03:46:57Z
2022-07-21T01:48:14Z,42.805,6.029,13.3003,4.60038,2470.707,2022-7-21T03:50:01Z
2022-07-21T01:51:17Z,42.805,6.029,13.3004,4.60038,2470.693,2022-7-21T03:53:04Z
2022-07-21T01:54:20Z,42.805,6.029,13.3003,4.60037,2470.661,2022-7-21T03:56:07Z
2022-07-21T01:57:23Z,42.805,6.029,13.3002,4.60036,2470.693,2022-7-21T03:59:10Z
2022-07-21T02:00:26Z,42.805,6.029,13.3004,4.60036,2470.693,2022-7-21T04:02:13Z
2022-07-21T02:03:29Z,42.805,6.029,13.3001,4.60037,2470.633,2022-7-21T04:05:16Z
2022-07-21T02:06:32Z,42.805,6.029,13.3006,4.60039,2470.67,2022-7-21T04:08:19Z
2022-07-21T02:09:35Z,42.805,6.029,13.3001,4.60037,2470.693,2022-7-21T04:11:22Z
2022-07-21T02:12:39Z,42.805,6.029,13.3003,4.60036,2470.684,2022-7-21T04:14:25Z
2022-07-21T02:15:42Z,42.805,6.029,13.3003,4.60037,2470.67,2022-7-21T04:17:29Z
2022-07-21T02:18:45Z,42.805,6.029,13.3005,4.60037,2470.67,2022-7-21T04:20:32Z
2022-07-21T02:21:48Z,42.805,6.029,13.3003,4.60040,2470.684,2022-7-21T04:23:35Z
2022-07-21T02:24:51Z,42.805,6.029,13.3004,4.60039,2470.684,2022-7-21T04:26:38Z
2022-07-21T02:27:54Z,42.805,6.029,13.3005,4.60038,2470.646,2022-7-21T04:29:41Z
2022-07-21T02:30:57Z,42.805,6.029,13.3006,4.60039,2470.684,2022-7-21T04:32:44Z
2022-07-21T02:34:00Z,42.805,6.029,13.3003,4.60039,2470.646,2022-7-21T04:35:47Z
2022-07-21T02:37:04Z,42.805,6.029,13.3003,4.60039,2470.624,2022-7-21T04:38:50Z
2022-07-21T02:40:07Z,42.805,6.029,13.3002,4.60037,2470.67,2022-7-21T04:41:54Z
2022-07-21T02:43:10Z,42.805,6.029,13.3004,4.60037,2470.67,2022-7-21T04:44:57Z
2022-07-21T02:46:13Z,42.805,6.029,13.3005,4.60037,2470.67,2022-7-21T04:48:00Z
2022-07-21T02:49:16Z,42.805,6.029,13.3004,4.60037,2470.661,2022-7-21T04:51:03Z
2022-07-21T02:52:19Z,42.805,6.029,13.3006,4.60039,2470.684,2022-7-21T04:54:06Z
2022-07-21T02:55:22Z,42.805,6.029,13.3006,4.60038,2470.693,2022-7-21T04:57:09Z
2022-07-21T02:58:25Z,42.805,6.029,13.3006,4.60037,2470.67,2022-7-21T05:00:12Z
2022-07-21T03:01:29Z,42.805,6.029,13.3007,4.60038,2470.624,2022-7-21T05:03:15Z
2022-07-21T03:04:32Z,42.805,6.029,13.3000,4.60037,2470.646,2022-7-21T05:06:19Z
2022-07-21T03:07:35Z,42.805,6.029,13.3001,4.60039,2470.67,2022-7-21T05:09:22Z
2022-07-21T03:10:38Z,42.805,6.029,13.3007,4.60038,2470.646,2022-7-21T05:12:25Z
2022-07-21T03:13:41Z,42.805,6.029,13.3000,4.60038,2470.646,2022-7-21T05:15:28Z
2022-07-21T03:16:44Z,42.805,6.029,13.3006,4.60038,2470.646,2022-7-21T05:18:31Z
2022-07-21T03:19:47Z,42.805,6.029,13.3009,4.60037,2470.624,2022-7-21T05:21:34Z
2022-07-21T03:22:50Z,42.805,6.029,13.3006,4.60036,2470.646,2022-7-21T05:24:37Z
2022-07-21T03:25:54Z,42.805,6.029,13.3005,4.60039,2470.637,2022-7-21T05:27:40Z
2022-07-21T03:28:57Z,42.805,6.029,13.3005,4.60038,2470.693,2022-7-21T05:30:44Z
2022-07-21T03:32:00Z,42.805,6.029,13.3005,4.60037,2470.646,2022-7-21T05:33:47Z
2022-07-21T03:35:03Z,42.805,6.029,13.3005,4.60037,2470.661,2022-7-21T05:36:50Z
2022-07-21T03:38:06Z,42.805,6.029,13.3005,4.60040,2470.624,2022-7-21T05:39:53Z
2022-07-21T03:41:09Z,42.805,6.029,13.3006,4.60041,2470.646,2022-7-21T05:42:56Z
2022-07-21T03:44:12Z,42.805,6.029,13.3005,4.60037,2470.624,2022-7-21T05:45:59Z
2022-07-21T03:47:15Z,42.805,6.029,13.3009,4.60038,2470.646,2022-7-21T05:49:02Z
2022-07-21T03:50:19Z,42.805,6.029,13.3004,4.60039,2470.624,2022-7-21T05:52:05Z
2022-07-21T03:53:22Z,42.805,6.029,13.3005,4.60039,2470.624,2022-7-21T05:55:09Z
2022-07-21T03:56:25Z,42.805,6.029,13.3006,4.60037,2470.646,2022-7-21T05:58:12Z
2022-07-21T03:59:28Z,42.805,6.029,13.3004,4.60039,2470.661,2022-7-21T06:01:15Z
2022-07-21T04:02:31Z,42.805,6.029,13.3002,4.60039,2470.624,2022-7-21T06:04:18Z
2022-07-21T04:05:34Z,42.805,6.029,13.3005,4.60038,2470.646,2022-7-21T06:07:21Z
2022-07-21T04:08:37Z,42.805,6.029,13.3005,4.60040,2470.637,2022-7-21T06:10:24Z
2022-07-21T04:11:40Z,42.805,6.029,13.3005,4.60038,2470.6,2022-7-21T06:13:27Z
2022-07-21T04:14:44Z,42.805,6.029,13.3004,4.60042,2470.6,2022-7-21T06:16:30Z
2022-07-21T04:17:47Z,42.805,6.029,13.3003,4.60038,2470.6,2022-7-21T06:19:33Z
2022-07-21T04:20:50Z,42.805,6.029,13.3004,4.60038,2470.646,2022-7-21T06:22:37Z
2022-07-21T04:23:53Z,42.805,6.029,13.3004,4.60037,2470.637,2022-7-21T06:25:40Z
2022-07-21T04:26:56Z,42.805,6.029,13.3004,4.60038,2470.646,2022-7-21T06:28:43Z
2022-07-21T04:29:59Z,42.805,6.029,13.3005,4.60038,2470.637,2022-7-21T06:31:46Z
2022-07-21T04:33:02Z,42.805,6.029,13.3001,4.60040,2470.6,2022-7-21T06:34:49Z
2022-07-21T04:36:05Z,42.805,6.029,13.3004,4.60037,2470.624,2022-7-21T06:37:52Z
2022-07-21T04:39:08Z,42.805,6.029,13.3004,4.60037,2470.624,2022-7-21T06:40:55Z
2022-07-21T04:42:12Z,42.805,6.029,13.3004,4.60037,2470.646,2022-7-21T06:43:58Z
2022-07-21T04:45:15Z,42.805,6.029,13.3004,4.60037,2470.614,2022-7-21T06:47:02Z
2022-07-21T04:48:18Z,42.805,6.029,13.3005,4.60038,2470.646,2022-7-21T06:50:05Z
2022-07-21T04:51:21Z,42.805,6.029,13.3008,4.60040,2470.646,2022-7-21T06:53:08Z
2022-07-21T04:54:24Z,42.805,6.029,13.3003,4.60039,2470.624,2022-7-21T06:56:11Z
2022-07-21T04:57:27Z,42.805,6.029,13.3009,4.60038,2470.614,2022-7-21T06:59:14Z
2022-07-21T05:00:30Z,42.805,6.029,13.3000,4.60038,2470.6,2022-7-21T07:02:17Z
2022-07-21T05:03:33Z,42.805,6.029,13.3000,4.60037,2470.614,2022-7-21T07:05:20Z
2022-07-21T05:06:37Z,42.805,6.029,13.3005,4.60036,2470.6,2022-7-21T07:08:23Z
2022-07-21T05:09:40Z,42.805,6.029,13.3006,4.60036,2470.614,2022-7-21T07:11:27Z
2022-07-21T05:12:43Z,42.805,6.029,13.3006,4.60036,2470.577,2022-7-21T07:14:30Z
2022-07-21T05:15:46Z,42.805,6.029,13.3002,4.60037,2470.61,2022-7-21T07:17:33Z
2022-07-21T05:18:49Z,42.805,6.029,13.3000,4.60037,2470.637,2022-7-21T07:20:36Z
2022-07-21T05:21:52Z,42.805,6.029,13.3004,4.60036,2470.6,2022-7-21T07:23:39Z
2022-07-21T05:24:55Z,42.805,6.029,13.3006,4.60037,2470.6,2022-7-21T07:26:42Z
2022-07-21T05:27:58Z,42.805,6.029,13.3005,4.60036,2470.577,2022-7-21T07:29:45Z
2022-07-21T05:31:02Z,42.805,6.029,13.3003,4.60037,2470.6,2022-7-21T07:32:48Z
2022-07-21T05:34:05Z,42.805,6.029,13.3004,4.60040,2470.614,2022-7-21T07:35:52Z
2022-07-21T05:37:08Z,42.805,6.029,13.3006,4.60037,2470.6,2022-7-21T07:38:55Z
2022-07-21T05:40:11Z,42.805,6.029,13.3005,4.60037,2470.6,2022-7-21T07:41:58Z
2022-07-21T05:43:14Z,42.805,6.029,13.3003,4.60037,2470.614,2022-7-21T07:45:01Z
2022-07-21T05:46:17Z,42.805,6.029,13.3009,4.60039,2470.591,2022-7-21T07:48:04Z
2022-07-21T05:49:20Z,42.805,6.029,13.3004,4.60039,2470.6,2022-7-21T07:51:07Z
2022-07-21T05:52:23Z,42.805,6.029,13.3006,4.60037,2470.6,2022-7-21T07:54:10Z
2022-07-21T05:55:26Z,42.805,6.029,13.3001,4.60037,2470.567,2022-7-21T07:57:13Z
2022-07-21T05:58:30Z,42.805,6.029,13.3006,4.60036,2470.591,2022-7-21T08:00:16Z
2022-07-21T06:01:33Z,42.805,6.029,13.3004,4.60037,2470.553,2022-7-21T08:03:20Z
2022-07-21T06:04:36Z,42.805,6.029,13.3004,4.60038,2470.577,2022-7-21T08:06:23Z
2022-07-21T06:07:39Z,42.805,6.029,13.3004,4.60038,2470.6,2022-7-21T08:09:26Z
2022-07-21T06:10:42Z,42.805,6.029,13.3004,4.60036,2470.553,2022-7-21T08:12:29Z
2022-07-21T06:13:45Z,42.805,6.029,13.3004,4.60036,2470.591,2022-7-21T08:15:32Z
2022-07-21T06:16:48Z,42.805,6.029,13.3004,4.60038,2470.553,2022-7-21T08:18:35Z
2022-07-21T06:19:51Z,42.805,6.029,13.3000,4.60039,2470.591,2022-7-21T08:21:38Z
2022-07-21T06:22:55Z,42.805,6.029,13.3006,4.60036,2470.614,2022-7-21T08:24:41Z
2022-07-21T06:25:58Z,42.805,6.029,13.3009,4.60036,2470.614,2022-7-21T08:27:45Z
2022-07-21T06:29:01Z,42.805,6.029,13.3005,4.60037,2470.553,2022-7-21T08:30:48Z
2022-07-21T06:32:04Z,42.805,6.029,13.3004,4.60039,2470.591,2022-7-21T08:33:51Z
2022-07-21T06:35:07Z,42.805,6.029,13.3001,4.60039,2470.591,2022-7-21T08:36:54Z
2022-07-21T06:38:10Z,42.805,6.029,13.3001,4.60038,2470.567,2022-7-21T08:39:57Z
2022-07-21T06:41:13Z,42.805,6.029,13.3006,4.60036,2470.567,2022-7-21T08:43:00Z
2022-07-21T06:44:16Z,42.805,6.029,13.3000,4.60039,2470.614,2022-7-21T08:46:03Z
2022-07-21T06:47:20Z,42.805,6.029,13.3004,4.60037,2470.591,2022-7-21T08:49:06Z
2022-07-21T06:50:23Z,42.805,6.029,13.3002,4.60037,2470.553,2022-7-21T08:52:10Z
2022-07-21T06:53:26Z,42.805,6.029,13.3004,4.60036,2470.553,2022-7-21T08:55:13Z
2022-07-21T06:56:29Z,42.805,6.029,13.3006,4.60036,2470.577,2022-7-21T08:58:16Z
2022-07-21T06:59:32Z,42.805,6.029,13.3004,4.60037,2470.53,2022-7-21T09:01:19Z
2022-07-21T07:02:35Z,42.805,6.029,13.3004,4.60037,2470.553,2022-7-21T09:04:22Z
2022-07-21T07:05:38Z,42.805,6.029,13.3004,4.60039,2470.577,2022-7-21T09:07:25Z
2022-07-21T07:08:41Z,42.805,6.029,13.3003,4.60039,2470.53,2022-7-21T09:10:28Z
2022-07-21T07:11:44Z,42.805,6.029,13.3004,4.60038,2470.553,2022-7-21T09:13:31Z
2022-07-21T07:14:48Z,42.805,6.029,13.3005,4.60036,2470.577,2022-7-21T09:16:34Z
2022-07-21T07:17:51Z,42.805,6.029,13.3002,4.60038,2470.591,2022-7-21T09:19:38Z
2022-07-21T07:20:54Z,42.805,6.029,13.3006,4.60038,2470.553,2022-7-21T09:22:41Z
2022-07-21T07:23:57Z,42.805,6.029,13.3003,4.60038,2470.577,2022-7-21T09:25:44Z
2022-07-21T07:27:00Z,42.805,6.029,13.3002,4.60036,2470.567,2022-7-21T09:28:47Z
2022-07-21T07:30:03Z,42.805,6.029,13.3003,4.60038,2470.567,2022-7-21T09:31:50Z
2022-07-21T07:33:06Z,42.805,6.029,13.3004,4.60036,2470.553,2022-7-21T09:34:53Z
2022-07-21T07:36:09Z,42.805,6.029,13.3004,4.60039,2470.577,2022-7-21T09:37:56Z
2022-07-21T07:39:13Z,42.805,6.029,13.3003,4.60035,2470.6,2022-7-21T09:40:59Z
2022-07-21T07:42:16Z,42.805,6.029,13.3003,4.60036,2470.553,2022-7-21T09:44:03Z
2022-07-21T07:45:19Z,42.805,6.029,13.3002,4.60038,2470.553,2022-7-21T09:47:06Z
2022-07-21T07:48:22Z,42.805,6.029,13.3004,4.60036,2470.6,2022-7-21T09:50:09Z
2022-07-21T07:51:25Z,42.805,6.029,13.3001,4.60037,2470.53,2022-7-21T09:53:12Z
2022-07-21T07:54:28Z,42.805,6.029,13.3004,4.60036,2470.553,2022-7-21T09:56:15Z
2022-07-21T07:57:31Z,42.805,6.029,13.3004,4.60036,2470.567,2022-7-21T09:59:18Z
2022-07-21T08:00:34Z,42.805,6.029,13.3000,4.60038,2470.53,2022-7-21T10:02:21Z
2022-07-21T08:03:38Z,42.805,6.029,13.3004,4.60036,2470.544,2022-7-21T10:05:24Z
2022-07-21T08:06:41Z,42.805,6.029,13.3003,4.60036,2470.53,2022-7-21T10:08:28Z
2022-07-21T08:09:44Z,42.805,6.029,13.3003,4.60036,2470.553,2022-7-21T10:11:31Z
2022-07-21T08:12:47Z,42.805,6.029,13.3000,4.60036,2470.553,2022-7-21T10:14:34Z
2022-07-21T08:15:50Z,42.805,6.029,13.3001,4.60035,2470.553,2022-7-21T10:17:37Z
2022-07-21T08:18:53Z,42.805,6.029,13.3004,4.60038,2470.53,2022-7-21T10:20:40Z
2022-07-21T08:21:56Z,42.805,6.029,13.3004,4.60036,2470.53,2022-7-21T10:23:43Z
2022-07-21T08:24:59Z,42.805,6.029,13.3003,4.60036,2470.553,2022-7-21T10:26:46Z
2022-07-21T08:28:03Z,42.805,6.029,13.3004,4.60035,2470.553,2022-7-21T10:29:49Z
2022-07-21T08:31:06Z,42.805,6.029,13.3003,4.60036,2470.53,2022-7-21T10:32:53Z
2022-07-21T08:34:09Z,42.805,6.029,13.3008,4.60036,2470.544,2022-7-21T10:35:56Z
2022-07-21T08:37:12Z,42.805,6.029,13.3005,4.60037,2470.516,2022-7-21T10:38:59Z
2022-07-21T08:40:15Z,42.805,6.029,13.3003,4.60039,2470.567,2022-7-21T10:42:02Z
2022-07-21T08:43:18Z,42.805,6.029,13.3003,4.60040,2470.567,2022-7-21T10:45:05Z
2022-07-21T08:46:21Z,42.805,6.029,13.3005,4.60038,2470.553,2022-7-21T10:48:08Z
2022-07-21T08:49:24Z,42.805,6.029,13.3000,4.60036,2470.53,2022-7-21T10:51:11Z
2022-07-21T08:52:28Z,42.805,6.029,13.3004,4.60036,2470.553,2022-7-21T10:54:14Z
2022-07-21T08:55:31Z,42.805,6.029,13.3005,4.60036,2470.53,2022-7-21T10:57:18Z
2022-07-21T08:58:34Z,42.805,6.029,13.3003,4.60037,2470.544,2022-7-21T11:00:21Z
2022-07-21T09:01:37Z,42.805,6.029,13.3006,4.60036,2470.539,2022-7-21T11:03:24Z
2022-07-21T09:04:40Z,42.805,6.029,13.3002,4.60036,2470.553,2022-7-21T11:06:27Z
2022-07-21T09:07:43Z,42.805,6.029,13.3004,4.60035,2470.553,2022-7-21T11:09:30Z
2022-07-21T09:10:46Z,42.805,6.029,13.3002,4.60036,2470.591,2022-7-21T11:12:33Z
2022-07-21T09:13:49Z,42.805,6.029,13.3000,4.60035,2470.567,2022-7-21T11:15:36Z
2022-07-21T09:16:53Z,42.805,6.029,13.3006,4.60036,2470.553,2022-7-21T11:18:39Z
2022-07-21T09:19:56Z,42.805,6.029,13.3004,4.60036,2470.553,2022-7-21T11:21:43Z
2022-07-21T09:22:59Z,42.805,6.029,13.3001,4.60038,2470.567,2022-7-21T11:24:46Z
2022-07-21T09:26:02Z,42.805,6.029,13.3004,4.60036,2470.553,2022-7-21T11:27:49Z
2022-07-21T09:29:05Z,42.805,6.029,13.3003,4.60036,2470.544,2022-7-21T11:30:52Z
2022-07-21T09:32:08Z,42.805,6.029,13.3003,4.60036,2470.553,2022-7-21T11:33:55Z
2022-07-21T09:35:11Z,42.805,6.029,13.3002,4.60038,2470.567,2022-7-21T11:36:58Z
2022-07-21T09:38:14Z,42.805,6.029,13.3003,4.60036,2470.567,2022-7-21T11:40:01Z
2022-07-21T09:41:18Z,42.805,6.029,13.3003,4.60036,2470.553,2022-7-21T11:43:04Z
2022-07-21T09:44:21Z,42.805,6.029,13.3005,4.60036,2470.553,2022-7-21T11:46:08Z
2022-07-21T09:47:24Z,42.805,6.029,13.3004,4.60035,2470.553,2022-7-21T11:49:11Z
2022-07-21T09:50:27Z,42.805,6.029,13.3004,4.60039,2470.539,2022-7-21T11:52:14Z
2022-07-21T09:53:30Z,42.805,6.029,13.3002,4.60036,2470.577,2022-7-21T11:55:17Z
2022-07-21T09:56:33Z,42.805,6.029,13.3003,4.60037,2470.567,2022-7-21T11:58:20Z
2022-07-21T09:59:36Z,42.805,6.029,13.3004,4.60036,2470.553,2022-7-21T12:01:23Z
2022-07-21T10:02:39Z,42.805,6.029,13.3000,4.60035,2470.553,2022-7-21T12:04:26Z
2022-07-21T10:05:43Z,42.805,6.029,13.3001,4.60037,2470.6,2022-7-21T12:07:29Z
2022-07-21T10:08:46Z,42.805,6.029,13.3000,4.60036,2470.577,2022-7-21T12:10:33Z
2022-07-21T10:11:49Z,42.805,6.029,13.3000,4.60037,2470.53,2022-7-21T12:13:36Z
2022-07-21T10:14:52Z,42.805,6.029,13.3004,4.60038,2470.577,2022-7-21T12:16:39Z
2022-07-21T10:17:55Z,42.805,6.029,13.3005,4.60036,2470.563,2022-7-21T12:19:42Z
2022-07-21T10:20:58Z,42.805,6.029,13.3002,4.60035,2470.577,2022-7-21T12:22:45Z
2022-07-21T10:24:01Z,42.805,6.029,13.2997,4.60037,2470.553,2022-7-21T12:25:48Z
2022-07-21T10:27:04Z,42.805,6.029,13.3004,4.60036,2470.577,2022-7-21T12:28:51Z
2022-07-21T10:30:08Z,42.805,6.029,13.3004,4.60037,2470.577,2022-7-21T12:31:54Z
2022-07-21T10:33:11Z,42.805,6.029,13.3004,4.60036,2470.591,2022-7-21T12:34:58Z
2022-07-21T10:36:14Z,42.805,6.029,13.3004,4.60036,2470.591,2022-7-21T12:38:01Z
2022-07-21T10:39:17Z,42.805,6.029,13.3003,4.60036,2470.577,2022-7-21T12:41:04Z
2022-07-21T10:42:20Z,42.805,6.029,13.3004,4.60036,2470.577,2022-7-21T12:44:07Z
2022-07-21T10:45:23Z,42.805,6.029,13.3004,4.60036,2470.591,2022-7-21T12:47:10Z
2022-07-21T10:48:26Z,42.805,6.029,13.3004,4.60037,2470.6,2022-7-21T12:50:13Z
2022-07-21T10:51:29Z,42.805,6.029,13.3005,4.60036,2470.577,2022-7-21T12:53:16Z
2022-07-21T10:54:33Z,42.805,6.029,13.3004,4.60036,2470.614,2022-7-21T12:56:19Z
2022-07-21T10:57:36Z,42.805,6.029,13.3004,4.60037,2470.6,2022-7-21T12:59:23Z
2022-07-21T11:00:39Z,42.805,6.029,13.3004,4.60038,2470.61,2022-7-21T13:02:26Z
2022-07-21T11:03:42Z,42.805,6.029,13.3002,4.60039,2470.591,2022-7-21T13:05:29Z
2022-07-21T11:06:45Z,42.805,6.029,13.2999,4.60038,2470.6,2022-7-21T13:08:32Z
2022-07-21T11:09:48Z,42.805,6.029,13.3004,4.60036,2470.646,2022-7-21T13:11:35Z
2022-07-21T11:12:51Z,42.805,6.029,13.3006,4.60036,2470.614,2022-7-21T13:14:38Z
2022-07-21T11:15:54Z,42.805,6.029,13.3006,4.60036,2470.577,2022-7-21T13:17:41Z
2022-07-21T11:18:58Z,42.805,6.029,13.3003,4.60038,2470.614,2022-7-21T13:20:44Z
2022-07-21T11:22:01Z,42.805,6.029,13.3004,4.60036,2470.614,2022-7-21T13:23:48Z
2022-07-21T11:25:04Z,42.805,6.029,13.3004,4.60036,2470.624,2022-7-21T13:26:51Z
2022-07-21T11:28:07Z,42.805,6.029,13.3000,4.60038,2470.614,2022-7-21T13:29:54Z
2022-07-21T11:31:10Z,42.805,6.029,13.3006,4.60038,2470.614,2022-7-21T13:32:57Z
2022-07-21T11:34:13Z,42.805,6.029,13.3000,4.60037,2470.6,2022-7-21T13:36:00Z
2022-07-21T11:37:16Z,42.805,6.029,13.3006,4.60037,2470.624,2022-7-21T13:39:03Z
2022-07-21T11:40:19Z,42.805,6.029,13.3002,4.60041,2470.646,2022-7-21T13:42:06Z
2022-07-21T11:43:23Z,42.805,6.029,13.2998,4.60036,2470.6,2022-7-21T13:45:09Z
2022-07-21T11:46:26Z,42.805,6.029,13.3005,4.60037,2470.637,2022-7-21T13:48:13Z
2022-07-21T11:49:29Z,42.805,6.029,13.3006,4.60037,2470.6,2022-7-21T13:51:16Z
2022-07-21T11:52:32Z,42.805,6.029,13.2999,4.60036,2470.6,2022-7-21T13:54:19Z
2022-07-21T11:55:35Z,42.805,6.029,13.3005,4.60037,2470.637,2022-7-21T13:57:22Z
2022-07-21T11:58:38Z,42.805,6.029,13.3006,4.60037,2470.6,2022-7-21T14:00:25Z
2022-07-21T12:01:41Z,42.805,6.029,13.3004,4.60038,2470.624,2022-7-21T14:03:28Z
2022-07-21T12:04:44Z,42.805,6.029,13.3004,4.60038,2470.624,2022-7-21T14:06:31Z
2022-07-21T12:07:48Z,42.805,6.029,13.3005,4.60039,2470.614,2022-7-21T14:09:35Z
2022-07-21T12:10:51Z,42.805,6.029,13.3002,4.60037,2470.614,2022-7-21T14:12:38Z
2022-07-21T12:13:54Z,42.805,6.029,13.3007,4.60036,2470.624,2022-7-21T14:15:41Z
2022-07-21T12:16:57Z,42.805,6.029,13.3003,4.60037,2470.637,2022-7-21T14:18:44Z
2022-07-21T12:20:00Z,42.805,6.029,13.3002,4.60039,2470.6,2022-7-21T14:21:47Z
2022-07-21T12:23:03Z,42.805,6.029,13.3004,4.60038,2470.624,2022-7-21T14:24:50Z
2022-07-21T12:26:06Z,42.805,6.029,13.3004,4.60035,2470.624,2022-7-21T14:27:53Z
2022-07-21T12:29:10Z,42.805,6.029,13.3003,4.60038,2470.637,2022-7-21T14:30:56Z
2022-07-21T12:32:13Z,42.805,6.029,13.3005,4.60037,2470.6,2022-7-21T14:34:00Z
2022-07-21T12:35:16Z,42.805,6.029,13.3004,4.60039,2470.637,2022-7-21T14:37:03Z
2022-07-21T12:38:19Z,42.805,6.029,13.3000,4.60037,2470.661,2022-7-21T14:40:06Z
2022-07-21T12:41:22Z,42.805,6.029,13.3007,4.60038,2470.6,2022-7-21T14:43:09Z
2022-07-21T12:44:25Z,42.805,6.029,13.3003,4.60037,2470.614,2022-7-21T14:46:12Z
2022-07-21T12:47:28Z,42.805,6.029,13.3000,4.60036,2470.6,2022-7-21T14:49:15Z
2022-07-21T12:50:31Z,42.805,6.029,13.3006,4.60036,2470.624,2022-7-21T14:52:18Z
2022-07-21T12:53:35Z,42.805,6.029,13.3004,4.60039,2470.637,2022-7-21T14:55:21Z
2022-07-21T12:56:38Z,42.805,6.029,13.3003,4.60037,2470.637,2022-7-21T14:58:25Z
2022-07-21T12:59:41Z,42.805,6.029,13.3004,4.60036,2470.614,2022-7-21T15:01:28Z
2022-07-21T13:02:44Z,42.805,6.029,13.3002,4.60036,2470.624,2022-7-21T15:04:31Z
2022-07-21T13:05:47Z,42.805,6.029,13.3005,4.60036,2470.624,2022-7-21T15:07:34Z
2022-07-21T13:08:50Z,42.805,6.029,13.3003,4.60036,2470.61,2022-7-21T15:10:37Z
2022-07-21T13:11:53Z,42.805,6.029,13.3001,4.60037,2470.637,2022-7-21T15:13:40Z
2022-07-21T13:14:56Z,42.805,6.029,13.3007,4.60037,2470.6,2022-7-21T15:16:43Z
2022-07-21T13:18:00Z,42.805,6.029,13.3003,4.60038,2470.6,2022-7-21T15:19:46Z
2022-07-21T13:21:03Z,42.805,6.029,13.3006,4.60037,2470.61,2022-7-21T15:22:50Z
2022-07-21T13:24:06Z,42.805,6.029,13.2999,4.60038,2470.624,2022-7-21T15:25:53Z
2022-07-21T13:27:09Z,42.805,6.029,13.3004,4.60036,2470.614,2022-7-21T15:28:56Z
2022-07-21T13:30:12Z,42.805,6.029,13.3000,4.60036,2470.637,2022-7-21T15:31:59Z
2022-07-21T13:33:15Z,42.805,6.029,13.3004,4.60036,2470.646,2022-7-21T15:35:02Z
2022-07-21T13:36:18Z,42.805,6.029,13.3002,4.60036,2470.637,2022-7-21T15:38:05Z
2022-07-21T13:39:21Z,42.805,6.029,13.3003,4.60038,2470.637,2022-7-21T15:41:08Z
2022-07-21T13:42:25Z,42.805,6.029,13.3003,4.60037,2470.624,2022-7-21T15:44:11Z
2022-07-21T13:45:28Z,42.805,6.029,13.3002,4.60039,2470.637,2022-7-21T15:47:15Z
2022-07-21T13:48:31Z,42.805,6.029,13.3004,4.60038,2470.624,2022-7-21T15:50:18Z
2022-07-21T13:51:34Z,42.805,6.029,13.3004,4.60036,2470.591,2022-7-21T15:53:21Z
2022-07-21T13:54:37Z,42.805,6.029,13.3004,4.60036,2470.6,2022-7-21T15:56:24Z
2022-07-21T13:57:40Z,42.805,6.029,13.3005,4.60038,2470.614,2022-7-21T15:59:27Z
2022-07-21T14:00:43Z,42.805,6.029,13.3007,4.60039,2470.6,2022-7-21T16:02:30Z
2022-07-21T14:03:46Z,42.805,6.029,13.3004,4.60039,2470.6,2022-7-21T16:05:33Z
2022-07-21T14:06:50Z,42.805,6.029,13.3004,4.60036,2470.637,2022-7-21T16:08:36Z
2022-07-21T14:09:53Z,42.805,6.029,13.3007,4.60037,2470.624,2022-7-21T16:11:40Z
2022-07-21T14:12:56Z,42.805,6.029,13.3006,4.60039,2470.614,2022-7-21T16:14:43Z
2022-07-21T14:15:59Z,42.805,6.029,13.3001,4.60039,2470.6,2022-7-21T16:17:46Z
2022-07-21T14:19:02Z,42.805,6.029,13.3004,4.60036,2470.563,2022-7-21T16:20:49Z
2022-07-21T14:22:05Z,42.805,6.029,13.3004,4.60039,2470.614,2022-7-21T16:23:52Z
2022-07-21T14:25:08Z,42.805,6.029,13.3006,4.60039,2470.6,2022-7-21T16:26:55Z
2022-07-21T14:28:11Z,42.805,6.029,13.3002,4.60038,2470.624,2022-7-21T16:29:58Z
2022-07-21T14:31:15Z,42.805,6.029,13.3004,4.60038,2470.637,2022-7-21T16:33:01Z
2022-07-21T14:34:18Z,42.805,6.029,13.3005,4.60036,2470.637,2022-7-21T16:36:05Z
2022-07-21T14:37:21Z,42.805,6.029,13.3004,4.60037,2470.624,2022-7-21T16:39:08Z
2022-07-21T14:40:24Z,42.805,6.029,13.3006,4.60038,2470.6,2022-7-21T16:42:11Z
2022-07-21T14:43:27Z,42.805,6.029,13.3004,4.60039,2470.6,2022-7-21T16:45:14Z
2022-07-21T14:46:30Z,42.805,6.029,13.3002,4.60036,2470.6,2022-7-21T16:48:17Z
2022-07-21T14:49:33Z,42.805,6.029,13.3004,4.60037,2470.6,2022-7-21T16:51:20Z
2022-07-21T14:52:36Z,42.805,6.029,13.3005,4.60037,2470.637,2022-7-21T16:54:23Z
2022-07-21T14:55:40Z,42.805,6.029,13.3000,4.60037,2470.637,2022-7-21T16:57:26Z
2022-07-21T14:58:43Z,42.805,6.029,13.3007,4.60036,2470.637,2022-7-21T17:00:30Z
2022-07-21T15:01:46Z,42.805,6.029,13.3004,4.60038,2470.646,2022-7-21T17:03:33Z
2022-07-21T15:04:49Z,42.805,6.029,13.3004,4.60036,2470.614,2022-7-21T17:06:36Z
2022-07-21T15:07:52Z,42.805,6.029,13.3004,4.60038,2470.6,2022-7-21T17:09:39Z
2022-07-21T15:10:55Z,42.805,6.029,13.3005,4.60036,2470.6,2022-7-21T17:12:42Z
2022-07-21T15:13:58Z,42.805,6.029,13.3003,4.60036,2470.6,2022-7-21T17:15:45Z